COSMOS 1275 DEB, 42203

Orbit data source: Space-Track

COSMOS 1275 DEB, 42203 is space debris in LEO originally from a launch on Thu, 04 Jun 1981 UTC launched from the Plesetsk Missile And Space Complex (PKMTR). Debris objects in space refer to the collection of defunct objects orbiting the Earth. Examples of debris include non-operational satellites, rocket bodies, and fragments generated from explosions, collisions, or faulty payload assembly.

Loading next visibility...
Identifier
42203, 1981-053TT
Orbit
LEO
Country
Flag of CISCIS
Related business
Manufacturer
Unknown
Mission
Spacecraft
Bus & Motor
Unknown
Mass
Unknown
Launch date (UTC)
1981-06-04 (44 years ago)
Launch vehicle
Unknown
Launch site
Plesetsk Missile And Space Complex (PKMTR)
Object type
Payload
Rocket body
Debris
Shape & HBR
Unknown shape, 0.1 m
Radar Cross Section
Small (<0.1 m²)

Expand to show TLE details & history
Last TLE update: 4 days ago

TLE from 4 days ago
0 COSMOS 1275 DEB
1 42203U 81053TT  25299.64551279  .00001618  00000-0  15983-2 0  9998
2 42203  82.9938  76.8575 0115809   3.7957  14.4570 13.75074978596355
Epoch: 2025-10-26T15:29Z
TLE epoch observation values (Epoch: 2025-10-26T15:29:32.305Z)
Latitude
18.43977°
Longitude
171.55023°
Altitude
901.299 km
Speed
7.444 km/s
True Right ascension
05h 16m 46s
True Declination
18° 20' 20"
Sunlit
Object was in full shadow at epoch
Visualization orbit readout
Latitude
Unknown
Longitude
Unknown
Altitude
Unknown
Speed
Unknown
Apparent Right ascension
Unknown
Apparent Declination
Unknown
Sunlit
N/A
Visualization observer readout
Local Sidereal Time
23:28:08
Azimuth
Unknown
Elevation
Unknown
Doppler factor
Unknown
Orbital elements
Apogee altitude
1,063.751 km
Perigee altitude
893.356 km
Semi-major axis
7,356.69 km
Eccentricity
0.01158
Inclination
82.9938°
RAAN
76.8575°
Arg. of periapsis
3.7957°
True anomaly
14.79301°
Mean anomaly
14.457°
Eccentric anomaly
14.62453°
Mean motion
3.43969 °/min
Orbital period
104.66 mins
BSTAR
0.0015983
Loading maneuver chart data...
Computing Atmospheric mass density...
Loading historical data...
Loading historical data...
Loading historical data...
Loading historical data...
Loading historical data...
Loading historical data...
Loading historical data...

Documentation

Showing up to 5 results
|